Location: Altenst�hlen
(53.5567°N, 8.9425°E)
Time: 06:07:34
(UTC+00:00)

STARLINK-40 - Pass Details

Date: 23 October 2019
Orbit: 548 x 551 km, 53.0° (Epoch: 14 November)

Event Time Altitude Azimuth Distance (km) Brightness Sun altitude
Rises 18:03:09 0° 279° (W) 2,721 8.9 -17.3°
Reaches altitude 10° 18:05:24 10° 277° (W) 1,827 7.6 -17.6°
Maximum altitude 18:09:31 72° 194° (SSW) 582 3.7 -18.3°
Enters shadow 18:10:49 42° 122° (ESE) 794 4.0 -18.4°
